Weather History for Mammoth, CA

Change the Weather History Date:

Monday, September 16, 2013

  Actual Average Record
Temperature  
Mean Temperature 58 °F -  
Max Temperature 80 °F 68 °F 82 °F (2014)
Min Temperature 35 °F 52 °F 32 °F (2010)
Degree Days  
Heating Degree Days 8    
Growing Degree Days 8 (Base 50)    
Moisture  
Dew Point 29 °F    
Average Humidity 34    
Maximum Humidity 70    
Minimum Humidity 14    
Precipitation  
Precipitation 0.00 in - - ()
Sea Level Pressure  
Sea Level Pressure 30.13 in    
Wind  
Wind Speed 5 mph (South)    
Max Wind Speed 24 mph    
Max Gust Speed 31 mph    
Visibility 10 miles    
Events      
Averages and records for this station are not official NWS values.
T = Trace of Precipitation, MM = Missing Value Source: NWS Daily Summary

Daily Weather History Graph

Daily Weather History Graph

Search for Another Location

Airport:

Trip Planner

Search our weather history database for the weather conditions in past years. The results will help you decide how hot, cold, wet, or windy it might be!

Date:

Astronomy

Sep. 16, 2013 Rise Set
Actual Time 6:38 AM PDT 7:01 PM PDT
Civil Twilight 6:12 AM PDT 7:27 PM PDT
Nautical Twilight 5:41 AM PDT 7:58 PM PDT
Astronomical Twilight 5:09 AM PDT 8:29 PM PDT
Moon 5:11 PM PDT (9/16) 3:32 AM PDT (9/16)
Length of Visible Light 13h 15m
Length of Day
12h 22m
Waxing Gibbous, 91% of the Moon is Illuminated
Sep 16
Waxing Gibbous
Sep 19
Full
Sep 26
Last Quarter
Oct 4
New
Oct 11
First Quarter

Hourly Weather History & Observations

Time (PDT) Temp. Windchill Dew Point Humidity Pressure Visibility Wind Dir Wind Speed Gust Speed Precip Events Conditions
12:15 AM 57.2 °F - 28.4 °F 33% 30.16 in 10.0 mi SE 3.5 mph - N/A   Clear
12:35 AM 55.4 °F - 32.0 °F 41% 30.17 in 10.0 mi SSE 5.8 mph - N/A   Clear
12:55 AM 53.6 °F - 32.0 °F 44% 30.17 in 10.0 mi Calm Calm - N/A   Clear
1:15 AM 51.8 °F - 32.0 °F 47% 30.17 in 10.0 mi Calm Calm - N/A   Clear
1:35 AM 51.8 °F - 30.2 °F 44% 30.17 in 10.0 mi Calm Calm - N/A   Clear
2:15 AM 51.8 °F - 28.4 °F 41% 30.17 in 10.0 mi Calm Calm - N/A   Clear
2:35 AM 50.0 °F - 28.4 °F 43% 30.16 in 10.0 mi Calm Calm - N/A   Clear
2:55 AM 46.4 °F 44.3 °F 26.6 °F 46% 30.16 in 10.0 mi NNW 4.6 mph - N/A   Clear
3:15 AM 46.4 °F 45.2 °F 28.4 °F 50% 30.16 in 10.0 mi South 3.5 mph - N/A   Clear
3:35 AM 42.8 °F - 28.4 °F 57% 30.17 in 10.0 mi Calm Calm - N/A   Clear
3:55 AM 46.4 °F 45.2 °F 28.4 °F 50% 30.16 in 10.0 mi NNE 3.5 mph - N/A   Clear
4:15 AM 44.6 °F - 28.4 °F 53% 30.17 in 10.0 mi Calm Calm - N/A   Clear
4:35 AM 41.0 °F 39.0 °F 28.4 °F 61% 30.16 in 10.0 mi NW 3.5 mph - N/A   Clear
4:55 AM 39.2 °F 37.0 °F 26.6 °F 61% 30.16 in 10.0 mi NNW 3.5 mph - N/A   Clear
5:15 AM 42.8 °F - 26.6 °F 53% 30.16 in 10.0 mi Calm Calm - N/A   Clear
5:35 AM 42.8 °F 41.1 °F 26.6 °F 53% 30.16 in 10.0 mi SW 3.5 mph - N/A   Clear
5:55 AM 41.0 °F - 26.6 °F 57% 30.16 in 10.0 mi Calm Calm - N/A   Clear
6:15 AM 39.2 °F 35.9 °F 26.6 °F 61% 30.17 in 10.0 mi NW 4.6 mph - N/A   Clear
6:35 AM 37.4 °F 34.9 °F 24.8 °F 60% 30.17 in 10.0 mi NW 3.5 mph - N/A   Clear
6:55 AM 35.6 °F 30.7 °F 26.6 °F 70% 30.17 in 10.0 mi NNW 5.8 mph - N/A   Clear
7:15 AM 39.2 °F 37.0 °F 26.6 °F 61% 30.18 in 10.0 mi NNE 3.5 mph - N/A   Clear
7:35 AM 46.4 °F - 28.4 °F 50% 30.18 in 10.0 mi Calm Calm - N/A   Clear
7:55 AM 50.0 °F - 28.4 °F 43% 30.18 in 10.0 mi Calm Calm - N/A   Clear
8:15 AM 55.4 °F - 30.2 °F 38% 30.18 in 10.0 mi Calm Calm - N/A   Clear
8:35 AM 57.2 °F - 32.0 °F 38% 30.18 in 10.0 mi Calm Calm - N/A   Clear
8:55 AM 60.8 °F - 30.2 °F 31% 30.18 in 10.0 mi SE 6.9 mph - N/A   Clear
9:15 AM 62.6 °F - 32.0 °F 32% 30.18 in 10.0 mi SE 8.1 mph - N/A   Clear
9:35 AM 64.4 °F - 30.2 °F 28% 30.18 in 10.0 mi SE 3.5 mph - N/A   Clear
9:55 AM 69.8 °F - 24.8 °F 18% 30.18 in 10.0 mi SE 4.6 mph - N/A   Clear
10:15 AM 71.6 °F - 26.6 °F 19% 30.18 in 10.0 mi East 5.8 mph - N/A   Clear
10:35 AM 73.4 °F - 24.8 °F 16% 30.17 in 10.0 mi East 8.1 mph - N/A   Clear
10:55 AM 73.4 °F - 24.8 °F 16% 30.17 in 10.0 mi ESE 6.9 mph - N/A   Clear
11:15 AM 75.2 °F - 24.8 °F 15% 30.17 in 10.0 mi ESE 9.2 mph - N/A   Clear
11:35 AM 75.2 °F - 23.0 °F 14% 30.17 in 10.0 mi ESE 6.9 mph - N/A   Clear
11:55 AM 75.2 °F - 24.8 °F 15% 30.16 in 10.0 mi ESE 6.9 mph - N/A   Clear
12:15 PM 77.0 °F - 24.8 °F 14% 30.16 in 10.0 mi ESE 6.9 mph - N/A   Clear
12:35 PM 77.0 °F - 26.6 °F 16% 30.16 in 10.0 mi East 10.4 mph 18.4 mph N/A   Clear
12:55 PM 78.8 °F - 26.6 °F 15% 30.15 in 10.0 mi ESE 15.0 mph 18.4 mph N/A   Clear
1:15 PM 78.8 °F - 26.6 °F 15% 30.14 in 10.0 mi ESE 8.1 mph - N/A   Clear
1:35 PM 78.8 °F - 26.6 °F 15% 30.13 in 10.0 mi SE 9.2 mph - N/A   Clear
1:55 PM 78.8 °F - 26.6 °F 15% 30.12 in 10.0 mi South 3.5 mph - N/A   Clear
2:15 PM 78.8 °F - 26.6 °F 15% 30.11 in 10.0 mi SE 6.9 mph - N/A   Clear
2:35 PM 80.6 °F - 26.6 °F 14% 30.11 in 10.0 mi ESE 6.9 mph - N/A   Clear
2:55 PM 80.6 °F - 26.6 °F 14% 30.10 in 10.0 mi ESE 4.6 mph - N/A   Clear
3:15 PM 80.6 °F - 28.4 °F 15% 30.09 in 10.0 mi SW 12.7 mph 19.6 mph N/A   Clear
3:35 PM 80.6 °F - 28.4 °F 15% 30.08 in 10.0 mi WSW 16.1 mph 23.0 mph N/A   Clear
3:55 PM 80.6 °F - 28.4 °F 15% 30.08 in 10.0 mi SW 13.8 mph 19.6 mph N/A   Clear
4:15 PM 78.8 °F - 28.4 °F 16% 30.08 in 10.0 mi WSW 15.0 mph 25.3 mph N/A   Clear
4:35 PM 78.8 °F - 30.2 °F 17% 30.08 in 10.0 mi WSW 15.0 mph 29.9 mph N/A   Clear
4:55 PM 77.0 °F - 32.0 °F 19% 30.08 in 10.0 mi WNW 24.2 mph 29.9 mph N/A   Clear
5:15 PM 75.2 °F - 32.0 °F 21% 30.08 in 10.0 mi West 23.0 mph 29.9 mph N/A   Clear
5:35 PM 73.4 °F - 32.0 °F 22% 30.08 in 10.0 mi West 20.7 mph 31.1 mph N/A   Clear
5:55 PM 71.6 °F - 33.8 °F 25% 30.08 in 10.0 mi West 20.7 mph 29.9 mph N/A   Clear
6:15 PM 71.6 °F - 33.8 °F 25% 30.08 in 10.0 mi West 13.8 mph 28.8 mph N/A   Clear
6:35 PM 69.8 °F - 33.8 °F 27% 30.08 in 10.0 mi West 13.8 mph 28.8 mph N/A   Clear
6:55 PM 66.2 °F - 32.0 °F 28% 30.08 in 10.0 mi West 12.7 mph 23.0 mph N/A   Clear
7:15 PM 66.2 °F - 32.0 °F 28% 30.07 in 10.0 mi West 6.9 mph 16.1 mph N/A   Clear
7:35 PM 64.4 °F - 32.0 °F 30% 30.07 in 10.0 mi West 6.9 mph 20.7 mph N/A   Clear
7:55 PM 62.6 °F - 32.0 °F 32% 30.08 in 10.0 mi WNW 10.4 mph 16.1 mph N/A   Clear
8:35 PM 62.6 °F - 30.2 °F 30% 30.08 in 10.0 mi SW 9.2 mph 23.0 mph N/A   Clear
8:55 PM 64.4 °F - 30.2 °F 28% 30.09 in 10.0 mi SSW 10.4 mph - N/A   Clear
9:15 PM 62.6 °F - 30.2 °F 30% 30.09 in 10.0 mi South 6.9 mph 15.0 mph N/A   Clear
9:35 PM 62.6 °F - 30.2 °F 30% 30.09 in 10.0 mi Calm Calm - N/A   Clear
9:55 PM 59.0 °F - 32.0 °F 36% 30.10 in 10.0 mi NE 3.5 mph - N/A   Clear
10:15 PM 57.2 °F - 32.0 °F 38% 30.09 in 10.0 mi SE 3.5 mph - N/A   Clear
10:35 PM 55.4 °F - 33.8 °F 44% 30.10 in 10.0 mi Calm Calm - N/A   Clear
10:55 PM 53.6 °F - 32.0 °F 44% 30.10 in 10.0 mi Calm Calm - N/A   Clear
11:15 PM 53.6 °F - 32.0 °F 44% 30.10 in 10.0 mi Calm Calm - N/A   Clear
11:35 PM 50.0 °F - 32.0 °F 50% 30.10 in 10.0 mi Calm Calm - N/A   Clear
11:55 PM 50.0 °F - 30.2 °F 47% 30.10 in 10.0 mi SSE 3.5 mph - N/A   Clear